Flag for U.S.A. Weather past 2 weeks in Cape Canaveral, Florida, U.S.A.

Now
73 °F

Passing clouds.


Feels Like: 71 °F
Forecast: 60 / 70 °F
Wind: 9 mph from South

Location: Cape Kennedy

Current Time: Dec 24, 2014 at 11:29:47 PM

Latest Report: Dec 24, 2014 at 10:58 PM


Visibility: 10 mi

Pressure: 29.92 "Hg

Humidity: 90%

Dew point: 70 °F

Location of Cape CanaveralLocation

Historic Weather in Cape Canaveral — Graph

°F

Cape Canaveral temperature yesterday

Maximum temperature yesterday: 79 °F (at 1:58 PM)
Minimum temperature yesterday: 63 °F (at 5:58 AM)
Average temperature yesterday: 71 °F

Past Weeks' High & Low Weather Summary

 TemperatureHumidityPressure
High79 °F (Dec 23, 1:58 PM)100% (Dec 23, 2:03 AM)30.26 "Hg (Dec 23, 2:03 AM)
Low41 °F (Dec 10, 8:58 PM)29% (Dec 14, 12:58 PM)29.89 "Hg (Dec 24, 6:58 PM)
Average59 °F78%30.09 "Hg
* Reported Dec 9 9:58 PM — Dec 24 9:58 PM, Cape Canaveral, Weather by CustomWeather, © 2014

Note: Actual official high and low records may vary slightly from our data, if they occured in-between our weather recording intervals... More about our weather records

Advertising

Cape Canaveral weather history for previous 24 hours

 ConditionsComfort  
Time TempWeatherWind HumidityBarometerVisibility
9:58 PM
Dec 24
72 °FClear.8 mph90%29.91 "Hg10 mi
8:58 PM73 °FPassing clouds.10 mph90%29.90 "Hg10 mi
7:58 PM73 °FPassing clouds.8 mph89%29.90 "Hg10 mi
6:58 PM73 °FPassing clouds.9 mph89%29.89 "Hg10 mi
5:58 PM79 °FClear.12 mph74%29.92 "Hg10 mi
4:58 PM79 °FSunny.14 mph74%29.92 "Hg10 mi
3:58 PMN/A12 mphN/AN/AN/A
2:58 PMN/A12 mphN/AN/AN/A
1:58 PMN/A14 mphN/AN/AN/A
12:58 PMN/A15 mphN/AN/AN/A
11:58 AMN/A12 mphN/AN/AN/A
10:58 AM77 °FSunny.16 mph79%29.93 "Hg10 mi
9:58 AM73 °FSunny.13 mph89%29.91 "Hg10 mi
8:58 AM73 °FSunny.13 mph89%29.91 "Hg10 mi
7:58 AM74 °FSunny.12 mph85%29.90 "Hg10 mi
6:58 AM75 °FClear.12 mph83%29.91 "Hg10 mi
5:58 AM75 °FClear.13 mph83%29.91 "Hg10 mi
4:58 AM75 °FClear.12 mph83%29.91 "Hg10 mi
3:58 AMN/A12 mphN/AN/AN/A
2:58 AM77 °FClear.13 mph79%29.91 "Hg10 mi
1:58 AM77 °FClear.12 mph79%29.91 "Hg10 mi
12:58 AM77 °FClear.13 mph79%29.90 "Hg10 mi
11:58 PM
Dec 23
77 °FClear.14 mph79%29.91 "Hg10 mi
Weather by CustomWeather, © 2014

See weather overviewHow to use our weather pages